Location: Boissi�res
(45.2500°N, 2.3667°E)
Time: 14:44:01
(UTC+00:00)

Cosmos 2219 Rocket - Pass Details

Date: 03 March 2021
Orbit: 826 x 848 km, 71.0° (Epoch: 18 April)

Event Time Altitude Azimuth Distance (km) Brightness Sun altitude
Rises 19:22:25 0° 186° (S) 3,351 5.3 -18.7°
Reaches altitude 10° 19:24:54 10° 181° (S) 2,423 4.5 -19.1°
Maximum altitude 19:30:12 47° 108° (ESE) 1,083 2.3 -20.0°
Drops below altitude 10° 19:35:33 10° 36° (NE) 2,449 4.4 -20.9°
Sets 19:38:04 0° 31° (NNE) 3,390 5.2 -21.4°
